Time,TemperatureF,DewpointF,PressureIn,WindDirection,WindDirectionDegrees,WindSpeedMPH,WindSpeedGustMPH,Humidity,HourlyPrecipIn,Conditions,Clouds,dailyrainin,SoftwareType,DateUTC
2013-11-01 00:04:00,48.0,47.5,29.66,SE,135,0.0,2.0,98,0.00,,,0.00,Wunderground v.1.15,2013-11-01 05:04:00,
2013-11-01 00:09:00,47.9,47.4,29.66,ESE,123,0.0,2.0,98,0.00,,,0.00,Wunderground v.1.15,2013-11-01 05:09:00,
2013-11-01 00:19:00,47.8,47.3,29.66,ESE,113,0.0,2.0,98,0.00,,,0.00,Wunderground v.1.15,2013-11-01 05:19:00,
2013-11-01 00:29:00,47.7,47.2,29.67,SE,139,0.0,2.0,98,0.00,,,0.00,Wunderground v.1.15,2013-11-01 05:29:00,
2013-11-01 00:34:00,47.7,47.2,29.67,SE,128,0.0,2.0,98,0.00,,,0.00,Wunderground v.1.15,2013-11-01 05:34:00,
2013-11-01 00:39:00,48.0,47.5,29.67,South,181,1.0,1.0,98,0.00,,,0.00,Wunderground v.1.15,2013-11-01 05:39:00,
2013-11-01 00:44:00,48.0,47.5,29.67,SSE,165,1.0,2.0,98,0.00,,,0.00,Wunderground v.1.15,2013-11-01 05:44:00,
2013-11-01 00:49:00,47.9,47.4,29.67,SSW,197,0.0,2.0,98,0.00,,,0.00,Wunderground v.1.15,2013-11-01 05:49:00,
2013-11-01 00:54:00,47.7,47.2,29.66,ESE,123,0.0,2.0,98,0.00,,,0.00,Wunderground v.1.15,2013-11-01 05:54:00,
2013-11-01 01:04:00,47.6,47.1,29.66,SE,128,0.0,2.0,98,0.00,,,0.00,Wunderground v.1.15,2013-11-01 06:04:00,
2013-11-01 01:14:00,48.0,47.5,29.65,SW,225,0.0,2.0,98,0.00,,,0.00,Wunderground v.1.15,2013-11-01 06:14:00,
2013-11-01 01:19:00,47.8,47.0,29.66,SSE,167,0.0,2.0,97,0.00,,,0.00,Wunderground v.1.15,2013-11-01 06:19:00,
2013-11-01 01:29:00,47.6,47.1,29.66,SE,128,0.0,2.0,98,0.00,,,0.00,Wunderground v.1.15,2013-11-01 06:29:00,
2013-11-01 01:34:00,47.6,47.1,29.67,SSW,208,0.0,2.0,98,0.00,,,0.00,Wunderground v.1.15,2013-11-01 06:34:00,
2013-11-01 01:44:00,47.5,46.7,29.67,SW,218,0.0,2.0,97,0.00,,,0.00,Wunderground v.1.15,2013-11-01 06:44:00,
2013-11-01 01:54:00,47.5,46.7,29.67,SSW,212,0.0,2.0,97,0.00,,,0.00,Wunderground v.1.15,2013-11-01 06:54:00,
2013-11-01 02:04:00,47.4,46.6,29.68,South,173,0.0,2.0,97,0.00,,,0.00,Wunderground v.1.15,2013-11-01 07:04:00,
2013-11-01 02:14:00,47.2,46.4,29.67,SSW,211,0.0,2.0,97,0.00,,,0.00,Wunderground v.1.15,2013-11-01 07:14:00,
2013-11-01 02:24:00,46.9,46.1,29.67,SW,214,0.0,2.0,97,0.00,,,0.00,Wunderground v.1.15,2013-11-01 07:24:00,
2013-11-01 02:34:00,46.3,45.5,29.68,ESE,121,0.0,2.0,97,0.00,,,0.00,Wunderground v.1.15,2013-11-01 07:34:00,
2013-11-01 02:44:00,45.8,45.0,29.68,SSE,158,0.0,2.0,97,0.00,,,0.00,Wunderground v.1.15,2013-11-01 07:44:00,
2013-11-01 02:54:00,45.7,45.2,29.68,SE,136,0.0,2.0,98,0.00,,,0.00,Wunderground v.1.15,2013-11-01 07:54:00,
2013-11-01 03:04:00,46.3,45.8,29.68,SW,235,0.0,2.0,98,0.00,,,0.00,Wunderground v.1.15,2013-11-01 08:04:00,
2013-11-01 03:14:00,46.3,45.5,29.69,SSW,212,0.0,2.0,97,0.00,,,0.00,Wunderground v.1.15,2013-11-01 08:14:00,
2013-11-01 03:24:00,45.6,44.8,29.68,SE,139,0.0,2.0,97,0.00,,,0.01,Wunderground v.1.15,2013-11-01 08:24:00,
2013-11-01 03:34:00,45.4,44.9,29.68,ESE,120,0.0,2.0,98,0.00,,,0.01,Wunderground v.1.15,2013-11-01 08:34:00,
2013-11-01 03:44:00,45.4,44.9,29.68,ESE,115,0.0,2.0,98,0.00,,,0.01,Wunderground v.1.15,2013-11-01 08:44:00,
2013-11-01 03:54:00,45.2,44.7,29.68,SSE,159,0.0,2.0,98,0.00,,,0.01,Wunderground v.1.15,2013-11-01 08:54:00,
2013-11-01 04:04:00,45.1,44.6,29.68,WSW,243,0.0,2.0,98,0.00,,,0.01,Wunderground v.1.15,2013-11-01 09:04:00,
2013-11-01 04:14:00,44.9,44.4,29.68,SSE,154,0.0,2.0,98,0.00,,,0.01,Wunderground v.1.15,2013-11-01 09:14:00,
2013-11-01 04:24:00,44.7,44.2,29.67,SSE,155,0.0,2.0,98,0.00,,,0.01,Wunderground v.1.15,2013-11-01 09:24:00,
2013-11-01 04:34:00,44.7,44.4,29.67,SSE,165,0.0,2.0,99,0.00,,,0.01,Wunderground v.1.15,2013-11-01 09:34:00,
2013-11-01 04:44:00,45.3,45.0,29.68,WSW,239,0.0,2.0,99,0.00,,,0.01,Wunderground v.1.15,2013-11-01 09:44:00,
2013-11-01 04:54:00,44.9,44.1,29.68,SE,143,0.0,2.0,97,0.00,,,0.01,Wunderground v.1.15,2013-11-01 09:54:00,
2013-11-01 05:04:00,44.7,44.2,29.68,SSE,160,0.0,2.0,98,0.00,,,0.01,Wunderground v.1.15,2013-11-01 10:04:00,
2013-11-01 05:14:00,44.5,44.0,29.68,SW,235,0.0,2.0,98,0.00,,,0.01,Wunderground v.1.15,2013-11-01 10:14:00,
2013-11-01 05:24:00,44.7,44.2,29.68,SSE,163,0.0,2.0,98,0.00,,,0.01,Wunderground v.1.15,2013-11-01 10:24:00,
2013-11-01 05:34:00,44.8,44.3,29.68,ESE,122,0.0,2.0,98,0.00,,,0.01,Wunderground v.1.15,2013-11-01 10:34:00,
2013-11-01 05:44:00,44.8,44.3,29.68,SE,126,0.0,2.0,98,0.00,,,0.01,Wunderground v.1.15,2013-11-01 10:44:00,
2013-11-01 05:49:00,44.9,44.4,29.69,SE,124,0.0,2.0,98,0.00,,,0.01,Wunderground v.1.15,2013-11-01 10:49:00,
2013-11-01 05:59:00,45.1,44.3,29.69,SE,139,0.0,2.0,97,0.00,,,0.01,Wunderground v.1.15,2013-11-01 10:59:00,
2013-11-01 06:09:00,45.2,44.1,29.69,ESE,114,0.0,2.0,96,0.00,,,0.01,Wunderground v.1.15,2013-11-01 11:09:00,
2013-11-01 06:19:00,44.9,43.8,29.69,South,170,0.0,2.0,96,0.00,,,0.01,Wunderground v.1.15,2013-11-01 11:19:00,
2013-11-01 06:24:00,44.5,43.4,29.69,SW,235,0.0,2.0,96,0.00,,,0.01,Wunderground v.1.15,2013-11-01 11:24:00,
2013-11-01 06:34:00,44.3,43.5,29.70,South,172,0.0,2.0,97,0.00,,,0.01,Wunderground v.1.15,2013-11-01 11:34:00,
2013-11-01 06:44:00,44.7,43.6,29.70,SE,128,0.0,2.0,96,0.00,,,0.01,Wunderground v.1.15,2013-11-01 11:44:00,
2013-11-01 06:54:00,44.9,43.6,29.71,SW,218,0.0,2.0,95,0.00,,,0.01,Wunderground v.1.15,2013-11-01 11:54:00,
2013-11-01 07:04:00,44.7,43.4,29.71,SE,132,0.0,2.0,95,0.00,,,0.01,Wunderground v.1.15,2013-11-01 12:04:00,
2013-11-01 07:09:00,44.7,43.4,29.71,SSE,167,0.0,2.0,95,0.00,,,0.01,Wunderground v.1.15,2013-11-01 12:09:00,
2013-11-01 07:19:00,44.5,43.2,29.72,ESE,122,0.0,2.0,95,0.00,,,0.01,Wunderground v.1.15,2013-11-01 12:19:00,
2013-11-01 07:29:00,44.3,43.0,29.72,SSE,155,0.0,2.0,95,0.00,,,0.01,Wunderground v.1.15,2013-11-01 12:29:00,
2013-11-01 07:39:00,44.5,43.2,29.72,SE,134,0.0,2.0,95,0.00,,,0.01,Wunderground v.1.15,2013-11-01 12:39:00,
2013-11-01 07:49:00,44.7,43.1,29.73,ESE,117,0.0,2.0,94,0.00,,,0.01,Wunderground v.1.15,2013-11-01 12:49:00,
2013-11-01 07:59:00,44.5,42.9,29.73,ESE,114,0.0,2.0,94,0.00,,,0.01,Wunderground v.1.15,2013-11-01 12:59:00,
2013-11-01 08:09:00,44.6,43.3,29.74,ESE,111,0.0,2.0,95,0.00,,,0.01,Wunderground v.1.15,2013-11-01 13:09:00,
2013-11-01 08:19:00,44.8,43.5,29.74,ESE,117,0.0,2.0,95,0.00,,,0.01,Wunderground v.1.15,2013-11-01 13:19:00,
2013-11-01 08:29:00,46.0,44.6,29.75,ESE,122,0.0,2.0,95,0.00,,,0.01,Wunderground v.1.15,2013-11-01 13:29:00,
2013-11-01 08:39:00,47.6,45.1,29.75,SE,131,0.0,2.0,91,0.00,,,0.01,Wunderground v.1.15,2013-11-01 13:39:00,
2013-11-01 08:49:00,49.2,46.4,29.76,ESE,118,0.0,2.0,90,0.00,,,0.01,Wunderground v.1.15,2013-11-01 13:49:00,
2013-11-01 08:59:00,50.3,46.6,29.76,SE,131,0.0,2.0,87,0.00,,,0.01,Wunderground v.1.15,2013-11-01 13:59:00,
2013-11-01 09:09:00,50.4,46.1,29.77,SW,224,0.0,2.0,85,0.00,,,0.01,Wunderground v.1.15,2013-11-01 14:09:00,
2013-11-01 09:14:00,50.9,46.9,29.77,SW,232,0.0,2.0,86,0.00,,,0.01,Wunderground v.1.15,2013-11-01 14:14:00,
2013-11-01 09:24:00,51.3,46.6,29.77,SSE,153,0.0,2.0,84,0.00,,,0.01,Wunderground v.1.15,2013-11-01 14:24:00,
2013-11-01 09:34:00,52.3,47.0,29.78,SSW,208,0.0,2.0,82,0.00,,,0.01,Wunderground v.1.15,2013-11-01 14:34:00,
2013-11-01 09:39:00,52.8,47.1,29.78,WSW,238,0.0,2.0,81,0.00,,,0.01,Wunderground v.1.15,2013-11-01 14:39:00,
2013-11-01 09:49:00,53.6,46.9,29.78,SSW,193,1.0,2.0,78,0.00,,,0.01,Wunderground v.1.15,2013-11-01 14:49:00,
2013-11-01 09:59:00,54.4,47.0,29.79,South,172,0.0,4.0,76,0.00,,,0.01,Wunderground v.1.15,2013-11-01 14:59:00,
2013-11-01 10:09:00,54.9,46.4,29.79,WSW,255,1.0,5.0,73,0.00,,,0.01,Wunderground v.1.15,2013-11-01 15:09:00,
2013-11-01 10:19:00,55.3,46.1,29.79,WSW,238,1.0,6.0,71,0.00,,,0.01,Wunderground v.1.15,2013-11-01 15:19:00,
2013-11-01 10:29:00,55.7,46.4,29.79,SSW,198,1.0,1.0,71,0.00,,,0.01,Wunderground v.1.15,2013-11-01 15:29:00,
2013-11-01 10:39:00,56.7,46.6,29.79,West,271,0.0,2.0,69,0.00,,,0.01,Wunderground v.1.15,2013-11-01 15:39:00,
2013-11-01 10:49:00,58.2,47.3,29.79,South,190,1.0,1.0,67,0.00,,,0.01,Wunderground v.1.15,2013-11-01 15:49:00,
2013-11-01 10:54:00,57.8,46.9,29.79,ESE,118,1.0,2.0,67,0.00,,,0.01,Wunderground v.1.15,2013-11-01 15:54:00,
2013-11-01 11:04:00,58.3,47.4,29.79,SW,224,1.0,2.0,67,0.00,,,0.01,Wunderground v.1.15,2013-11-01 16:04:00,
2013-11-01 11:14:00,58.7,45.7,29.79,WSW,252,1.0,2.0,62,0.00,,,0.01,Wunderground v.1.15,2013-11-01 16:14:00,
2013-11-01 11:24:00,59.4,45.9,29.78,West,259,1.0,3.0,61,0.00,,,0.01,Wunderground v.1.15,2013-11-01 16:24:00,
2013-11-01 11:29:00,59.7,45.3,29.78,SE,137,2.0,2.0,59,0.00,,,0.01,Wunderground v.1.15,2013-11-01 16:29:00,
2013-11-01 11:39:00,60.5,44.7,29.78,SE,135,2.0,2.0,56,0.00,,,0.01,Wunderground v.1.15,2013-11-01 16:39:00,
2013-11-01 11:49:00,60.9,43.6,29.79,East,92,3.0,3.0,53,0.00,,,0.01,Wunderground v.1.15,2013-11-01 16:49:00,
2013-11-01 11:59:00,61.4,43.6,29.79,WSW,244,3.0,3.0,52,0.00,,,0.01,Wunderground v.1.15,2013-11-01 16:59:00,
2013-11-01 12:09:00,62.2,44.3,29.79,ESE,121,2.0,2.0,52,0.00,,,0.01,Wunderground v.1.15,2013-11-01 17:09:00,
2013-11-01 12:19:00,63.0,46.1,29.79,ENE,62,2.0,2.0,54,0.00,,,0.01,Wunderground v.1.15,2013-11-01 17:19:00,
2013-11-01 12:29:00,63.4,44.9,29.78,SE,132,2.0,2.0,51,0.00,,,0.01,Wunderground v.1.15,2013-11-01 17:29:00,
2013-11-01 12:39:00,63.5,42.3,29.78,SW,235,3.0,8.0,46,0.00,,,0.01,Wunderground v.1.15,2013-11-01 17:39:00,
2013-11-01 12:49:00,63.3,42.2,29.78,WNW,285,4.0,6.0,46,0.00,,,0.01,Wunderground v.1.15,2013-11-01 17:49:00,
2013-11-01 12:54:00,63.5,42.3,29.78,WSW,248,4.0,7.0,46,0.00,,,0.01,Wunderground v.1.15,2013-11-01 17:54:00,
2013-11-01 13:04:00,63.7,43.6,29.78,SE,134,4.0,11.0,48,0.00,,,0.01,Wunderground v.1.15,2013-11-01 18:04:00,
2013-11-01 13:14:00,63.8,42.6,29.78,WSW,240,3.0,6.0,46,0.00,,,0.01,Wunderground v.1.15,2013-11-01 18:14:00,
2013-11-01 13:24:00,63.8,42.0,29.77,WSW,252,3.0,7.0,45,0.00,,,0.01,Wunderground v.1.15,2013-11-01 18:24:00,
2013-11-01 13:34:00,63.6,43.0,29.77,NNE,32,4.0,5.0,47,0.00,,,0.01,Wunderground v.1.15,2013-11-01 18:34:00,
2013-11-01 13:44:00,64.8,42.4,29.77,SSE,152,2.0,4.0,44,0.00,,,0.01,Wunderground v.1.15,2013-11-01 18:44:00,
2013-11-01 13:54:00,62.7,41.6,29.78,SW,222,5.0,5.0,46,0.00,,,0.01,Wunderground v.1.15,2013-11-01 18:54:00,
2013-11-01 14:04:00,61.9,41.4,29.78,West,281,3.0,5.0,47,0.00,,,0.01,Wunderground v.1.15,2013-11-01 19:04:00,
2013-11-01 14:14:00,61.1,41.2,29.78,SE,138,2.0,2.0,48,0.00,,,0.01,Wunderground v.1.15,2013-11-01 19:14:00,
2013-11-01 14:24:00,60.2,42.5,29.78,West,273,2.0,2.0,52,0.00,,,0.01,Wunderground v.1.15,2013-11-01 19:24:00,
2013-11-01 14:34:00,59.9,41.7,29.78,SW,235,2.0,2.0,51,0.00,,,0.01,Wunderground v.1.15,2013-11-01 19:34:00,
2013-11-01 14:44:00,60.7,43.0,29.78,South,170,1.0,3.0,52,0.00,,,0.01,Wunderground v.1.15,2013-11-01 19:44:00,
2013-11-01 14:54:00,61.0,42.2,29.78,WNW,288,2.0,2.0,50,0.00,,,0.01,Wunderground v.1.15,2013-11-01 19:54:00,
2013-11-01 15:04:00,61.4,42.1,29.78,SE,143,2.0,3.0,49,0.00,,,0.01,Wunderground v.1.15,2013-11-01 20:04:00,
2013-11-01 15:14:00,61.2,40.8,29.78,ESE,110,3.0,4.0,47,0.00,,,0.01,Wunderground v.1.15,2013-11-01 20:14:00,
2013-11-01 15:19:00,61.4,42.6,29.78,SW,217,3.0,7.0,50,0.00,,,0.01,Wunderground v.1.15,2013-11-01 20:19:00,
2013-11-01 15:24:00,61.9,42.0,29.78,NNW,328,2.0,7.0,48,0.00,,,0.01,Wunderground v.1.15,2013-11-01 20:24:00,
2013-11-01 15:34:00,62.8,42.3,29.78,West,269,2.0,3.0,47,0.00,,,0.01,Wunderground v.1.15,2013-11-01 20:34:00,
2013-11-01 15:44:00,61.8,40.8,29.78,West,278,2.0,8.0,46,0.00,,,0.01,Wunderground v.1.15,2013-11-01 20:44:00,
2013-11-01 15:54:00,60.6,41.3,29.78,ENE,73,3.0,3.0,49,0.00,,,0.01,Wunderground v.1.15,2013-11-01 20:54:00,
2013-11-01 15:59:00,60.3,40.5,29.78,West,260,2.0,2.0,48,0.00,,,0.01,Wunderground v.1.15,2013-11-01 20:59:00,
2013-11-01 16:09:00,61.6,42.2,29.79,SW,221,1.0,2.0,49,0.00,,,0.01,Wunderground v.1.15,2013-11-01 21:09:00,
2013-11-01 16:19:00,61.5,41.6,29.79,SE,131,2.0,2.0,48,0.00,,,0.01,Wunderground v.1.15,2013-11-01 21:19:00,
2013-11-01 16:29:00,62.2,41.2,29.79,South,169,1.0,6.0,46,0.00,,,0.01,Wunderground v.1.15,2013-11-01 21:29:00,
2013-11-01 16:39:00,61.7,41.3,29.79,West,259,2.0,2.0,47,0.00,,,0.01,Wunderground v.1.15,2013-11-01 21:39:00,
2013-11-01 16:44:00,61.4,40.4,29.80,ESE,108,2.0,2.0,46,0.00,,,0.01,Wunderground v.1.15,2013-11-01 21:44:00,
2013-11-01 16:54:00,61.2,41.9,29.80,SSW,208,1.0,2.0,49,0.00,,,0.01,Wunderground v.1.15,2013-11-01 21:54:00,
2013-11-01 17:04:00,60.8,41.5,29.80,SE,132,1.0,2.0,49,0.00,,,0.01,Wunderground v.1.15,2013-11-01 22:04:00,
2013-11-01 17:14:00,60.2,41.0,29.81,SW,227,1.0,2.0,49,0.00,,,0.01,Wunderground v.1.15,2013-11-01 22:14:00,
2013-11-01 17:24:00,59.9,41.7,29.81,WSW,242,1.0,2.0,51,0.00,,,0.01,Wunderground v.1.15,2013-11-01 22:24:00,
2013-11-01 17:34:00,59.2,41.6,29.81,WSW,255,2.0,4.0,52,0.00,,,0.01,Wunderground v.1.15,2013-11-01 22:34:00,
2013-11-01 17:44:00,58.7,42.1,29.81,SE,135,1.0,2.0,54,0.00,,,0.01,Wunderground v.1.15,2013-11-01 22:44:00,
2013-11-01 17:54:00,58.2,42.1,29.82,East,89,0.0,2.0,55,0.00,,,0.01,Wunderground v.1.15,2013-11-01 22:54:00,
2013-11-01 17:59:00,58.0,42.4,29.82,WNW,293,1.0,2.0,56,0.00,,,0.01,Wunderground v.1.15,2013-11-01 22:59:00,
2013-11-01 18:09:00,57.8,41.7,29.82,SW,227,1.0,1.0,55,0.00,,,0.01,Wunderground v.1.15,2013-11-01 23:09:00,
2013-11-01 18:14:00,57.7,42.6,29.82,SW,235,1.0,2.0,57,0.00,,,0.01,Wunderground v.1.15,2013-11-01 23:14:00,
2013-11-01 18:24:00,57.4,42.7,29.83,ESE,110,1.0,2.0,58,0.00,,,0.01,Wunderground v.1.15,2013-11-01 23:24:00,
2013-11-01 18:34:00,56.5,44.0,29.83,ESE,107,0.0,2.0,63,0.00,,,0.01,Wunderground v.1.15,2013-11-01 23:34:00,
2013-11-01 18:44:00,55.7,44.5,29.84,ESE,111,2.0,2.0,66,0.00,,,0.01,Wunderground v.1.15,2013-11-01 23:44:00,
2013-11-01 18:54:00,55.1,43.5,29.84,SE,140,1.0,2.0,65,0.00,,,0.01,Wunderground v.1.15,2013-11-01 23:54:00,
2013-11-01 19:04:00,54.4,43.3,29.85,SW,222,0.0,2.0,66,0.00,,,0.01,Wunderground v.1.15,2013-11-02 00:04:00,
2013-11-01 19:14:00,53.7,43.4,29.85,SE,134,0.0,2.0,68,0.00,,,0.01,Wunderground v.1.15,2013-11-02 00:14:00,
2013-11-01 19:24:00,52.1,44.1,29.85,SE,134,0.0,2.0,74,0.00,,,0.01,Wunderground v.1.15,2013-11-02 00:24:00,
2013-11-01 19:34:00,50.4,43.1,29.86,SE,134,0.0,2.0,76,0.00,,,0.01,Wunderground v.1.15,2013-11-02 00:34:00,
2013-11-01 19:44:00,48.9,42.7,29.86,SE,134,0.0,2.0,79,0.00,,,0.01,Wunderground v.1.15,2013-11-02 00:44:00,
2013-11-01 19:54:00,47.5,42.6,29.87,SE,134,0.0,2.0,83,0.00,,,0.01,Wunderground v.1.15,2013-11-02 00:54:00,
2013-11-01 20:04:00,46.3,42.3,29.87,SE,134,0.0,2.0,86,0.00,,,0.01,Wunderground v.1.15,2013-11-02 01:04:00,
2013-11-01 20:14:00,45.3,42.2,29.88,SE,134,0.0,2.0,89,0.00,,,0.01,Wunderground v.1.15,2013-11-02 01:14:00,
2013-11-01 20:24:00,44.8,42.6,29.88,SE,134,0.0,2.0,92,0.00,,,0.01,Wunderground v.1.15,2013-11-02 01:24:00,
2013-11-01 20:29:00,44.8,42.9,29.88,SE,134,0.0,2.0,93,0.00,,,0.01,Wunderground v.1.15,2013-11-02 01:29:00,
2013-11-01 20:34:00,44.5,42.6,29.88,SE,134,0.0,2.0,93,0.00,,,0.01,Wunderground v.1.15,2013-11-02 01:34:00,
2013-11-01 20:44:00,44.1,42.5,29.88,SE,134,0.0,2.0,94,0.00,,,0.01,Wunderground v.1.15,2013-11-02 01:44:00,
2013-11-01 20:49:00,43.8,41.9,29.88,SE,134,0.0,2.0,93,0.00,,,0.01,Wunderground v.1.15,2013-11-02 01:49:00,
2013-11-01 20:54:00,43.8,42.5,29.89,SE,134,0.0,2.0,95,0.00,,,0.01,Wunderground v.1.15,2013-11-02 01:54:00,
2013-11-01 20:59:00,43.5,41.9,29.89,SE,134,0.0,2.0,94,0.00,,,0.01,Wunderground v.1.15,2013-11-02 01:59:00,
2013-11-01 21:09:00,43.3,42.0,29.89,SE,134,0.0,2.0,95,0.00,,,0.01,Wunderground v.1.15,2013-11-02 02:09:00,
2013-11-01 21:14:00,43.3,42.2,29.89,SE,134,0.0,2.0,96,0.00,,,0.01,Wunderground v.1.15,2013-11-02 02:14:00,
2013-11-01 21:19:00,43.1,41.8,29.89,SE,134,0.0,2.0,95,0.00,,,0.01,Wunderground v.1.15,2013-11-02 02:19:00,
2013-11-01 21:29:00,42.8,41.5,29.89,SE,134,0.0,2.0,95,0.00,,,0.01,Wunderground v.1.15,2013-11-02 02:29:00,
2013-11-01 21:39:00,42.3,41.2,29.90,SE,134,0.0,2.0,96,0.00,,,0.01,Wunderground v.1.15,2013-11-02 02:39:00,
2013-11-01 21:49:00,41.7,40.6,29.90,SE,134,0.0,2.0,96,0.00,,,0.01,Wunderground v.1.15,2013-11-02 02:49:00,
2013-11-01 21:59:00,41.9,41.1,29.90,SE,134,0.0,2.0,97,0.00,,,0.01,Wunderground v.1.15,2013-11-02 02:59:00,
2013-11-01 22:09:00,41.3,40.5,29.91,SE,134,0.0,2.0,97,0.00,,,0.01,Wunderground v.1.15,2013-11-02 03:09:00,
2013-11-01 22:14:00,41.1,40.3,29.91,SE,134,0.0,2.0,97,0.00,,,0.01,Wunderground v.1.15,2013-11-02 03:14:00,
2013-11-01 22:24:00,41.0,40.2,29.91,SE,134,0.0,2.0,97,0.00,,,0.01,Wunderground v.1.15,2013-11-02 03:24:00,
2013-11-01 22:34:00,40.9,40.1,29.91,SE,134,0.0,2.0,97,0.00,,,0.01,Wunderground v.1.15,2013-11-02 03:34:00,
2013-11-01 22:39:00,41.0,40.2,29.91,SE,134,0.0,2.0,97,0.00,,,0.01,Wunderground v.1.15,2013-11-02 03:39:00,
2013-11-01 22:44:00,41.0,40.2,29.91,SE,134,0.0,2.0,97,0.00,,,0.01,Wunderground v.1.15,2013-11-02 03:44:00,
2013-11-01 22:54:00,40.8,40.0,29.91,SE,136,0.0,2.0,97,0.00,,,0.01,Wunderground v.1.15,2013-11-02 03:54:00,
2013-11-01 23:04:00,40.5,39.7,29.91,SE,136,0.0,2.0,97,0.00,,,0.01,Wunderground v.1.15,2013-11-02 04:04:00,
2013-11-01 23:09:00,40.6,40.1,29.91,SE,137,0.0,2.0,98,0.00,,,0.01,Wunderground v.1.15,2013-11-02 04:09:00,
2013-11-01 23:14:00,40.8,40.3,29.91,SE,136,0.0,2.0,98,0.00,,,0.01,Wunderground v.1.15,2013-11-02 04:14:00,
2013-11-01 23:19:00,41.1,40.6,29.91,SE,137,0.0,2.0,98,0.00,,,0.01,Wunderground v.1.15,2013-11-02 04:19:00,
2013-11-01 23:24:00,41.5,41.0,29.91,SE,135,0.0,2.0,98,0.00,,,0.01,Wunderground v.1.15,2013-11-02 04:24:00,
2013-11-01 23:34:00,43.5,43.2,29.92,SW,222,0.0,2.0,99,0.00,,,0.01,Wunderground v.1.15,2013-11-02 04:34:00,
2013-11-01 23:44:00,44.6,43.0,29.92,ESE,121,0.0,2.0,94,0.00,,,0.01,Wunderground v.1.15,2013-11-02 04:44:00,
2013-11-01 23:49:00,44.3,42.1,29.92,East,98,0.0,2.0,92,0.00,,,0.01,Wunderground v.1.15,2013-11-02 04:49:00,
2013-11-01 23:59:00,43.4,41.5,29.92,East,98,0.0,2.0,93,0.00,,,0.01,Wunderground v.1.15,2013-11-02 04:59:00,